This is the latest recevied weather packets stored in our database for station/object KF6GPE. If no packets are shown the sender has not sent any weather packets the latest 10 day(s).
| Time | Temp. | Humidity | Pressure | Rain* | Wind** | Luminosity | Snow |
|---|---|---|---|---|---|---|---|
| 1777525803 | 11.11° C | 90% | 989.9 hPa | 0 mm | - | 1000 W/m² | - |
| 1777525203 | 11.11° C | 89% | 989.9 hPa | 0 mm | - | 1000 W/m² | - |
| 1777524604 | 11.11° C | 89% | 989.9 hPa | 0 mm | - | 1000 W/m² | - |
| 1777524003 | 11.67° C | 88% | 989.8 hPa | 0 mm | - | 1000 W/m² | - |
| 1777523403 | 11.67° C | 87% | 989.8 hPa | 0 mm | - | 1000 W/m² | - |
| 1777522803 | 11.67° C | 87% | 989.7 hPa | 0 mm | - | 1000 W/m² | - |
| 1777522203 | 12.22° C | 86% | 989.7 hPa | 0 mm | - | 1000 W/m² | - |
| 1777521603 | 12.22° C | 85% | 989.6 hPa | 0 mm | - | 1000 W/m² | - |
| 1777521003 | 12.22° C | 84% | 989.5 hPa | 0 mm | - | 1000 W/m² | - |
| 1777519803 | 12.78° C | 82% | 989.3 hPa | 0 mm | - | 1000 W/m² | - |
| 1777519203 | 13.33° C | 81% | 989.3 hPa | 0 mm | - | 1000 W/m² | - |
| 1777518603 | 13.33° C | 79% | 989.3 hPa | 0 mm | - | 1000 W/m² | - |
| 1777518004 | 13.89° C | 79% | 989.2 hPa | 0 mm | - | 1000 W/m² | - |
| 1777517403 | 13.89° C | 77% | 989 hPa | 0 mm | - | 1000 W/m² | - |
| 1777516803 | 14.44° C | 76% | 989 hPa | 0 mm | - | 1000 W/m² | - |
| 1777516203 | 15° C | 75% | 989 hPa | 0 mm | - | 1000 W/m² | - |
| 1777515603 | 15° C | 72% | 989 hPa | 0 mm | - | 1000 W/m² | - |
| 1777515003 | 15.56° C | 70% | 989 hPa | 0 mm | - | 1000 W/m² | - |
| 1777514403 | 16.11° C | 69% | 989 hPa | 0 mm | - | 1001 W/m² | - |
| 1777513803 | 16.67° C | 67% | 989.1 hPa | 0 mm | - | 1001 W/m² | - |
| 1777512604 | 17.22° C | 64% | 989.1 hPa | 0 mm | - | 1001 W/m² | - |
| 1777511403 | 17.78° C | 65% | 989.1 hPa | 0 mm | - | 1001 W/m² | - |
| 1777510802 | 17.78° C | 63% | 989.2 hPa | 0 mm | - | 1001 W/m² | - |
| 1777510203 | 18.33° C | 65% | 989.1 hPa | 0 mm | - | 1001 W/m² | - |
| 1777509604 | 18.33° C | 66% | 989.1 hPa | 0 mm | - | 1002 W/m² | - |
* Rain latest hour (hover to see other rain measurements)
** Current wind speed in m/s (hover to see current wind gust speed)